User: anonymous   Login
Location: Albany
(35.0000°S, 118.0000°E)
Time: 06:58:06
(UTC-04:00)
Language:

ERS-1 Rocket - Orbit

View from above orbital plane
View from above orbital plane
View from above satellite
View from above satellite

Ground track
Ground track

The orbit data is extracted from the following two-line orbital elements,

1 21610U 91050F   17149.78107380 +.00000032 +00000-0 +24240-4 0  9992
2 21610 098.6062 206.2262 0003283 021.3501 087.5280 14.40795836357182
Epoch (UTC): 29 May 2017 18:44:44
Eccentricity: 0.0003283
inclination: 98.6062°
perigee height: 753 km
apogee height: 758 km
right ascension of ascending node: 206.2262°
argument of perigee: 21.3501°
revolutions per day: 14.40795836
mean anomaly at epoch: 87.5280°
orbit number at epoch: 35718

The dashed part of the orbit path shows where the satellite is in the earth's shadow,  

DLR